SAS932 KLAX-EKCH

Flight info

Callsign SAS932
Flight time N/A
Altitude 33000
Route ORCKA5 LAS Q70 BLIPP Q842 WINEN DCT DTA DCT CKW DCT RAP DCT DLH DCT YSP DCT PEMLU DCT JOVIE DCT CUDDY/M082F330 DCT 58N050W 59N040W 59N030W 59N020W DCT BALIX/N0478F330 DCT NINEX DCT KLONN DCT RAMUD DCT TESPI TESPI4C
Aircraft A333/H-SDE1E3FGHIJ3J4J5M1P2RWXYZ/LB2D1

Departure

Time N/A
Airport Los Angeles International Airport (KLAX)

Arrival

Time 2026-05-08 07:18
Airport Copenhagen Kastrup Airport (EKCH)
Time Latitude Longitude Altitude Speed Heading
2026-05-08 06:15 58.50008 1.47503 35024 ft 479 kts 103°
2026-05-08 06:16 58.49524 1.53874 35022 ft 479 kts 103°
2026-05-08 06:16 58.48557 1.66474 35031 ft 479 kts 103°
2026-05-08 06:17 58.47077 1.85446 35035 ft 478 kts 104°
2026-05-08 06:17 58.46075 1.98077 35041 ft 478 kts 104°
2026-05-08 06:18 58.45061 2.10701 35045 ft 478 kts 104°
2026-05-08 06:18 58.44035 2.23318 35053 ft 476 kts 104°
2026-05-08 06:19 58.43003 2.35837 35056 ft 475 kts 104°
2026-05-08 06:19 58.41957 2.48381 35062 ft 474 kts 104°
2026-05-08 06:20 58.40906 2.60830 35070 ft 475 kts 104°
2026-05-08 06:20 58.39841 2.73299 35076 ft 473 kts 105°
2026-05-08 06:21 58.38236 2.85419 35089 ft 461 kts 119°
2026-05-08 06:21 58.35564 2.96533 35088 ft 461 kts 121°
2026-05-08 06:22 58.32784 3.07598 35088 ft 458 kts 121°
2026-05-08 06:22 58.29998 3.18576 35109 ft 456 kts 121°
2026-05-08 06:23 58.27212 3.29488 35109 ft 457 kts 121°
2026-05-08 06:23 58.24417 3.40381 35127 ft 458 kts 121°
2026-05-08 06:24 58.21621 3.51233 35127 ft 456 kts 121°
2026-05-08 06:24 58.18810 3.62082 35130 ft 455 kts 121°
2026-05-08 06:25 58.15989 3.72926 35133 ft 454 kts 121°
2026-05-08 06:25 58.13176 3.83678 35142 ft 455 kts 121°
2026-05-08 06:26 58.10351 3.94434 35141 ft 454 kts 121°
2026-05-08 06:26 58.07519 4.05154 35148 ft 454 kts 121°
2026-05-08 06:27 58.04688 4.15825 35154 ft 453 kts 121°
2026-05-08 06:27 58.01849 4.26480 35154 ft 453 kts 121°
2026-05-08 06:28 57.98986 4.37167 35155 ft 454 kts 121°
2026-05-08 06:28 57.96106 4.47871 35155 ft 453 kts 121°
2026-05-08 06:29 57.93233 4.58496 35160 ft 454 kts 121°
2026-05-08 06:29 57.90346 4.69128 35153 ft 454 kts 122°
2026-05-08 06:30 57.87455 4.79717 35176 ft 454 kts 121°
2026-05-08 06:30 57.84546 4.90329 35170 ft 454 kts 121°
2026-05-08 06:31 57.81629 5.00924 35172 ft 453 kts 121°
2026-05-08 06:31 57.78725 5.11418 35172 ft 455 kts 121°
2026-05-08 06:32 57.75795 5.21953 35170 ft 454 kts 121°
2026-05-08 06:32 57.72860 5.32466 35165 ft 453 kts 121°
2026-05-08 06:33 57.69920 5.42942 35165 ft 453 kts 121°
2026-05-08 06:33 57.66965 5.53429 35166 ft 452 kts 121°
2026-05-08 06:34 57.64008 5.63874 35174 ft 452 kts 121°
2026-05-08 06:34 57.61057 5.74248 35176 ft 452 kts 122°
2026-05-08 06:35 57.58098 5.84606 35185 ft 452 kts 122°
2026-05-08 06:35 57.55099 5.95057 35183 ft 452 kts 121°
2026-05-08 06:36 57.52113 6.05417 35184 ft 451 kts 121°
2026-05-08 06:36 57.49121 6.15748 35177 ft 452 kts 121°
2026-05-08 06:37 57.46110 6.26098 35186 ft 452 kts 121°
2026-05-08 06:37 57.43108 6.36376 35194 ft 453 kts 121°
2026-05-08 06:38 57.40078 6.46699 35195 ft 453 kts 121°
2026-05-08 06:38 57.37050 6.56971 35184 ft 453 kts 121°
2026-05-08 06:39 57.33999 6.67275 35187 ft 452 kts 122°
2026-05-08 06:39 57.30938 6.77571 35197 ft 452 kts 122°
2026-05-08 06:40 57.27889 6.87781 35201 ft 452 kts 122°
2026-05-08 06:40 57.24829 6.97980 35201 ft 452 kts 121°
2026-05-08 06:41 57.21751 7.08192 35188 ft 452 kts 122°
2026-05-08 06:41 57.18666 7.18389 35198 ft 451 kts 121°
2026-05-08 06:42 57.15589 7.28511 35209 ft 452 kts 121°
2026-05-08 06:42 57.12480 7.38696 35219 ft 453 kts 121°
2026-05-08 06:43 57.09375 7.48825 35219 ft 452 kts 121°
2026-05-08 06:43 57.06258 7.58948 35221 ft 452 kts 121°
2026-05-08 06:44 57.02744 7.68677 35222 ft 452 kts 127°
2026-05-08 06:44 56.99158 7.78234 35233 ft 452 kts 126°
2026-05-08 06:45 56.95546 7.87826 35228 ft 452 kts 126°
2026-05-08 06:45 56.91960 7.97318 35231 ft 453 kts 126°
2026-05-08 06:46 56.88340 8.06861 35237 ft 452 kts 126°
2026-05-08 06:46 56.84738 8.16320 35240 ft 453 kts 126°
2026-05-08 06:47 56.81113 8.25800 35239 ft 452 kts 126°
2026-05-08 06:47 56.77477 8.35274 35237 ft 453 kts 126°
2026-05-08 06:48 56.73864 8.44651 35237 ft 452 kts 126°
2026-05-08 06:48 56.70226 8.54056 35235 ft 452 kts 126°
2026-05-08 06:49 56.66583 8.63435 35235 ft 452 kts 126°
2026-05-08 06:49 56.62940 8.72782 35236 ft 453 kts 127°
2026-05-08 06:50 56.59259 8.82187 35238 ft 452 kts 127°
2026-05-08 06:50 56.55590 8.91526 35237 ft 453 kts 127°
2026-05-08 06:51 56.51902 9.00878 35238 ft 453 kts 127°
2026-05-08 06:51 56.48233 9.10147 35237 ft 453 kts 127°
2026-05-08 06:52 56.44542 9.19435 35236 ft 452 kts 126°
2026-05-08 06:52 56.40856 9.28676 35236 ft 452 kts 126°
2026-05-08 06:53 56.37149 9.37933 35235 ft 453 kts 126°
2026-05-08 06:53 56.33438 9.47161 35233 ft 452 kts 126°
2026-05-08 06:54 56.29723 9.56371 35232 ft 453 kts 126°
2026-05-08 06:54 56.27871 9.60948 34985 ft 449 kts 126°
2026-05-08 06:54 56.26036 9.65473 34539 ft 442 kts 127°
2026-05-08 06:55 56.24233 9.69913 33761 ft 439 kts 127°
2026-05-08 06:55 56.22422 9.74365 32939 ft 442 kts 127°
2026-05-08 06:55 56.20589 9.78862 32164 ft 445 kts 127°
2026-05-08 06:55 56.18758 9.83345 31419 ft 445 kts 127°
2026-05-08 06:56 56.16937 9.87797 30786 ft 439 kts 127°
2026-05-08 06:56 56.15123 9.92224 30209 ft 431 kts 127°
2026-05-08 06:56 56.13360 9.96517 29697 ft 425 kts 127°
2026-05-08 06:56 56.11612 10.00765 29242 ft 425 kts 127°
2026-05-08 06:57 56.09846 10.05051 28718 ft 424 kts 127°
2026-05-08 06:57 56.08094 10.09295 28193 ft 421 kts 126°
2026-05-08 06:57 56.06350 10.13513 27664 ft 419 kts 126°
2026-05-08 06:57 56.04603 10.17732 27135 ft 415 kts 126°
2026-05-08 06:58 56.02893 10.21854 26613 ft 413 kts 127°
2026-05-08 06:58 56.01182 10.25971 26093 ft 411 kts 127°
2026-05-08 06:58 55.99478 10.30063 25569 ft 409 kts 127°
2026-05-08 06:58 55.97760 10.34183 25040 ft 405 kts 127°
2026-05-08 06:59 55.96081 10.38205 24519 ft 403 kts 127°
2026-05-08 06:59 55.94411 10.42195 24002 ft 401 kts 127°
2026-05-08 06:59 55.92729 10.46209 23489 ft 398 kts 127°
2026-05-08 06:59 55.91071 10.50156 22983 ft 395 kts 127°
2026-05-08 07:00 55.89672 10.54352 22453 ft 394 kts 112°
2026-05-08 07:00 55.89019 10.59097 21999 ft 391 kts 99°
2026-05-08 07:00 55.88506 10.63837 21539 ft 390 kts 102°
2026-05-08 07:00 55.87949 10.68580 21074 ft 387 kts 103°
2026-05-08 07:01 55.87389 10.73245 20613 ft 385 kts 103°
2026-05-08 07:01 55.86723 10.77850 20147 ft 380 kts 111°
2026-05-08 07:01 55.85696 10.82140 19705 ft 379 kts 114°
2026-05-08 07:01 55.84654 10.86449 19251 ft 376 kts 114°
2026-05-08 07:02 55.83600 10.90735 18796 ft 374 kts 114°
2026-05-08 07:02 55.82557 10.94951 18347 ft 372 kts 114°
2026-05-08 07:02 55.81518 10.99133 17899 ft 370 kts 114°
2026-05-08 07:02 55.80476 11.03317 17482 ft 366 kts 114°
2026-05-08 07:03 55.79449 11.07432 17106 ft 364 kts 114°
2026-05-08 07:03 55.78416 11.11562 16735 ft 362 kts 114°
2026-05-08 07:03 55.77397 11.15632 16373 ft 359 kts 114°
2026-05-08 07:03 55.76390 11.19642 16013 ft 357 kts 114°
2026-05-08 07:04 55.75382 11.23652 15653 ft 355 kts 114°
2026-05-08 07:04 55.74366 11.27682 15291 ft 352 kts 114°
2026-05-08 07:04 55.73371 11.31626 14891 ft 351 kts 114°
2026-05-08 07:04 55.72377 11.35556 14402 ft 348 kts 114°
2026-05-08 07:05 55.71395 11.39433 13906 ft 344 kts 114°
2026-05-08 07:05 55.70410 11.43313 13401 ft 340 kts 114°
2026-05-08 07:05 55.69441 11.47129 12897 ft 337 kts 114°
2026-05-08 07:05 55.68486 11.50880 12395 ft 333 kts 114°
2026-05-08 07:06 55.67541 11.54584 11891 ft 330 kts 114°
2026-05-08 07:06 55.66608 11.58236 11324 ft 319 kts 114°
2026-05-08 07:06 55.65702 11.61779 10790 ft 309 kts 113°
2026-05-08 07:06 55.64831 11.65177 10377 ft 298 kts 114°
2026-05-08 07:07 55.63991 11.68451 10038 ft 290 kts 114°
2026-05-08 07:07 55.63158 11.71690 9656 ft 283 kts 114°
2026-05-08 07:07 55.62352 11.74822 9280 ft 277 kts 114°
2026-05-08 07:07 55.61556 11.77913 8916 ft 272 kts 114°
2026-05-08 07:08 55.60781 11.80916 8580 ft 267 kts 114°
2026-05-08 07:08 55.60018 11.83872 8251 ft 265 kts 114°
2026-05-08 07:08 55.59246 11.86855 7935 ft 264 kts 114°
2026-05-08 07:08 55.58483 11.89802 7606 ft 262 kts 114°
2026-05-08 07:09 55.57691 11.92686 7250 ft 262 kts 120°
2026-05-08 07:09 55.56625 11.95324 6900 ft 262 kts 124°
2026-05-08 07:09 55.55546 11.97905 6559 ft 262 kts 124°
2026-05-08 07:09 55.54465 12.00486 6206 ft 261 kts 124°
2026-05-08 07:10 55.53378 12.03069 5842 ft 259 kts 124°
2026-05-08 07:10 55.52308 12.05592 5531 ft 253 kts 124°
2026-05-08 07:10 55.51259 12.08048 5241 ft 248 kts 124°
2026-05-08 07:10 55.50220 12.10488 4957 ft 246 kts 124°
2026-05-08 07:11 55.49206 12.12872 4687 ft 244 kts 124°
2026-05-08 07:11 55.48193 12.15256 4416 ft 241 kts 124°
2026-05-08 07:11 55.47203 12.17591 4147 ft 237 kts 124°
2026-05-08 07:11 55.46218 12.19919 3871 ft 233 kts 124°
2026-05-08 07:12 55.45257 12.22184 3606 ft 230 kts 124°
2026-05-08 07:12 55.44525 12.24640 3320 ft 224 kts 100°
2026-05-08 07:12 55.44516 12.27319 3084 ft 219 kts 84°
2026-05-08 07:12 55.44655 12.29966 2940 ft 215 kts 84°
2026-05-08 07:13 55.44787 12.32547 2950 ft 206 kts 84°
2026-05-08 07:13 55.44912 12.35039 2966 ft 204 kts 84°
2026-05-08 07:13 55.45049 12.37452 2946 ft 191 kts 79°
2026-05-08 07:13 55.45687 12.39406 2961 ft 187 kts 43°
2026-05-08 07:14 55.46653 12.40918 2994 ft 188 kts 45°
2026-05-08 07:14 55.47601 12.42433 2943 ft 176 kts 44°
2026-05-08 07:14 55.48494 12.43826 2895 ft 169 kts 44°
2026-05-08 07:14 55.49342 12.45138 2725 ft 160 kts 44°
2026-05-08 07:15 55.50169 12.46413 2472 ft 156 kts 44°
2026-05-08 07:15 55.50983 12.47665 2245 ft 154 kts 44°
2026-05-08 07:15 55.51792 12.48911 2026 ft 154 kts 44°
2026-05-08 07:15 55.52598 12.50150 1807 ft 153 kts 44°
2026-05-08 07:16 55.53369 12.51332 1612 ft 143 kts 44°
2026-05-08 07:16 55.54110 12.52476 1402 ft 140 kts 44°
2026-05-08 07:16 55.54846 12.53609 1207 ft 141 kts 44°
2026-05-08 07:16 55.55581 12.54739 1007 ft 141 kts 44°
2026-05-08 07:17 55.56323 12.55887 812 ft 142 kts 43°
2026-05-08 07:17 55.57066 12.57033 628 ft 142 kts 43°
2026-05-08 07:17 55.57816 12.58188 431 ft 143 kts 43°
2026-05-08 07:17 55.58566 12.59341 242 ft 143 kts 43°
2026-05-08 07:18 55.59317 12.60507 56 ft 143 kts 42°
2026-05-08 07:18 55.60007 12.61578 27 ft 111 kts 41°
2026-05-08 07:18 55.60460 12.62272 30 ft 60 kts 41°
2026-05-08 07:18 55.60667 12.62591 26 ft 26 kts 40°
2026-05-08 07:19 55.60808 12.62777 25 ft 25 kts 27°
2026-05-08 07:19 55.60974 12.62872 24 ft 25 kts 11°
2026-05-08 07:19 55.61108 12.62927 23 ft 15 kts 20°
2026-05-08 07:19 55.61194 12.63026 23 ft 14 kts 39°
2026-05-08 07:20 55.61270 12.63144 24 ft 14 kts 40°
2026-05-08 07:20 55.61342 12.63254 25 ft 13 kts 40°
2026-05-08 07:20 55.61411 12.63359 27 ft 15 kts 40°
2026-05-08 07:20 55.61496 12.63492 27 ft 16 kts 41°
2026-05-08 07:21 55.61585 12.63629 28 ft 16 kts 40°
2026-05-08 07:21 55.61671 12.63763 28 ft 16 kts 40°
2026-05-08 07:21 55.61757 12.63896 28 ft 16 kts 40°
2026-05-08 07:21 55.61842 12.64026 29 ft 16 kts 40°
2026-05-08 07:22 55.61935 12.64124 30 ft 15 kts 25°
2026-05-08 07:22 55.62027 12.64202 31 ft 14 kts 25°
2026-05-08 07:22 55.62120 12.64279 31 ft 14 kts 25°
2026-05-08 07:22 55.62214 12.64359 30 ft 15 kts 28°
2026-05-08 07:23 55.62275 12.64505 30 ft 15 kts 65°
2026-05-08 07:23 55.62314 12.64658 31 ft 11 kts 65°
2026-05-08 07:23 55.62341 12.64756 31 ft 7 kts 50°
2026-05-08 07:23 55.62387 12.64775 31 ft 7 kts 357°
2026-05-08 07:24 55.62417 12.64813 31 ft 3 kts 72°
2026-05-08 07:24 55.62420 12.64861 31 ft 4 kts 86°
2026-05-08 07:24 55.62421 12.64887 31 ft 0 kts 88°
2026-05-08 07:24 55.62421 12.64898 31 ft 0 kts 88°
2026-05-08 07:25 55.62421 12.64906 31 ft 0 kts 88°
2026-05-08 07:25 55.62421 12.64909 31 ft 0 kts 88°
2026-05-08 07:25 55.62421 12.64910 31 ft 0 kts 88°